Dewpoint
72 70 69 66 59 57 54 56 55 52 56 49 49 52 55 59 58 57 61 62 64 67 70 73 77 76 76 77 76 76 76 76 76 75 75 74 74 73 73 73 73 74 73 73 73 73 73 73 73
70 69 63 61 55 54 55 58 53 55 56 50 51 54 54 55 58 58 61 65 66 68 68 70 77 77 76 77 76 77 76 76 76 75 75 74 73 73 73 73 73 74 73 73 73 73 73 73 73
71 64 61 59 56 52 55 59 57 52 51 52 47 54 56 56 60 61 61 64 65 66 68 72 77 77 76 76 76 76 75 75 74 74 74 74 73 73 73 73 73 73 73 73 74 73 73 73 73
63 64 61 55 48 52 56 59 58 51 50 49 53 54 57 59 60 62 61 63 64 68 69 76 77 76 75 74 74 74 74 74 75 74 74 74 74 74 73 73 74 74 73 73 73 72 73 72 72
60 64 59 53 50 53 54 56 54 52 52 49 54 56 56 59 62 62 62 62 66 69 71 73 77 76 75 75 74 74 74 73 73 73 74 74 73 74 74 73 72 72 73 72 72 72 72 70 71
57 57 54 50 52 52 53 53 53 53 56 48 51 56 57 61 61 61 61 62 69 71 68 72 76 76 75 75 75 74 74 74 74 74 73 73 73 73 72 72 73 73 73 71 71 72 70 70 70
48 47 50 51 52 53 54 54 51 56 57 55 52 55 56 60 61 63 63 66 67 70 69 72 73 75 75 75 73 74 73 74 73 74 74 74 73 73 73 74 73 72 71 71 71 71 70 70 70
45 51 52 54 51 52 53 53 54 58 60 62 54 54 54 61 62 62 61 62 66 68 68 71 73 73 73 73 74 73 74 74 74 73 74 74 74 74 74 74 73 72 71 72 72 70 69 70 70
43 56 54 55 50 54 55 53 55 58 55 59 50 55 56 61 60 62 61 61 67 68 68 68 69 71 76 74 72 74 74 74 73 69 73 74 72 72 72 74 73 73 73 72 72 72 70 70 71
45 51 54 55 52 54 54 56 57 54 55 53 51 55 56 56 59 62 61 60 61 65 67 70 69 71 71 72 73 73 73 72 72 73 74 73 71 72 67 73 74 73 73 73 72 72 70 70 71
44 49 48 51 56 54 53 55 57 54 55 57 59 54 55 55 55 55 58 60 62 66 69 71 71 71 71 73 75 74 75 72 72 75 75 72 71 69 69 71 68 73 72 70 72 72 71 70 73
46 45 48 52 54 54 55 56 54 59 57 58 59 58 55 54 56 57 60 60 66 66 68 68 70 74 73 75 72 72 72 74 73 72 74 74 72 72 70 71 71 74 72 74 73 74 72 70 72
42 41 45 52 54 54 57 57 54 58 57 57 59 54 54 56 57 59 61 62 64 66 68 70 72 74 74 75 75 75 72 71 69 70 70 73 70 75 71 74 73 73 75 75 74 73 72 71 70
39 37 41 49 52 53 53 55 52 56 59 57 53 53 54 57 58 61 62 62 65 66 67 69 69 74 73 75 75 74 73 72 69 67 71 75 72 74 72 74 73 74 73 73 75 74 73 73 72
40 36 41 52 52 52 53 55 54 59 59 52 51 52 54 59 60 60 61 62 66 66 67 70 69 72 74 73 74 73 74 68 70 73 74 73 71 76 73 76 74 73 75 75 75 75 75 73 70
33 40 46 50 50 51 52 52 55 58 59 54 50 50 52 59 59 61 62 63 65 65 67 69 68 70 73 74 74 72 73 68 70 71 71 73 75 75 76 72 68 72 75 73 73 73 74 72 73
34 41 40 47 48 50 52 55 60 58 55 52 50 50 52 53 58 60 62 62 65 67 68 69 69 68 71 73 71 71 73 71 70 70 70 74 74 75 74 72 70 72 72 65 70 73 75 72 71
34 33 32 39 46 48 49 53 54 51 52 53 50 50 53 53 52 60 60 62 63 67 69 68 69 71 72 71 75 73 70 69 69 71 74 75 74 74 75 70 68 73 73 68 71 75 74 73 72
29 28 29 40 45 47 47 50 54 55 52 53 51 49 50 51 56 57 60 61 62 66 69 69 71 72 70 70 70 70 68 68 69 71 73 72 74 71 77 75 71 73 72 71 74 75 74 71 73
22 27 33 42 43 46 47 46 54 53 53 54 51 49 50 53 56 58 59 61 63 67 69 70 71 72 73 71 70 71 71 70 71 73 72 74 73 73 74 76 74 76 73 75 74 75 74 72 70
27 27 35 40 41 50 46 50 52 53 55 51 53 51 50 54 55 57 59 61 63 67 69 70 72 73 73 71 72 72 75 75 73 73 74 72 73 74 75 76 76 76 75 73 72 74 74 68 67
23 29 31 32 35 44 46 47 52 52 55 53 50 52 50 53 56 57 58 58 61 65 68 71 71 73 72 74 72 73 70 72 71 73 74 73 72 70 74 75 76 78 76 75 75 73 75 75 70
24 27 31 32 32 40 43 44 48 52 49 53 54 50 50 51 53 55 56 59 60 62 66 69 72 74 74 74 75 71 72 71 71 71 77 75 67 68 73 75 76 73 75 76 75 75 75 75 73
23 24 30 33 41 36 39 35 40 45 46 55 57 51 51 50 52 57 58 59 61 61 63 70 72 73 73 74 73 74 72 73 73 72 73 76 73 73 75 75 76 76 76 75 75 76 77 77 76
22 22 29 31 40 41 37 38 35 38 44 42 43 46 51 52 52 55 58 60 63 63 62 68 72 72 73 73 72 73 74 74 73 72 69 70 72 73 73 76 75 76 77 75 77 77 76 76 76
22 25 30 28 34 34 35 41 36 37 39 44 45 48 48 53 53 55 58 62 63 63 65 65 72 73 72 73 74 74 75 72 71 72 73 71 71 70 74 74 75 76 76 75 77 76 75 76 75
23 23 21 19 17 14 33 40 39 37 38 43 45 49 50 52 52 54 58 60 62 65 66 66 71 73 72 72 73 74 75 74 71 74 75 71 74 73 73 70 68 72 75 76 76 75 76 75 75
23 21 19 21 26 23 25 36 40 46 45 42 45 47 51 52 54 54 57 59 62 63 66 67 70 72 72 71 72 72 72 73 72 74 75 75 74 75 74 73 71 73 75 76 76 75 75 75 75
18 19 19 16 18 20 23 33 48 51 51 45 45 48 50 51 53 54 58 62 63 65 66 66 69 71 71 71 72 72 72 72 72 71 73 75 76 76 75 76 75 76 75 76 76 76 75 75 75
18 21 20 19 24 18 19 31 39 50 53 43 44 47 49 50 52 57 59 62 63 65 67 68 69 69 69 70 73 72 73 73 72 71 71 73 74 75 75 75 75 75 75 76 76 74 72 75 74
Lifted_Index
-4 -4 -4 -3 -2 -2 -1 -1 -2 -2 -1 -1 -1 -1 -1 -2 -2 -3 -3 -3 -3 -3 -4 -5 -5 -6 -6 -6 -6 -6 -6 -6 -5 -5 -5 -4 -4 -3 -3 -3 -4 -4 -4 -3 -4 -4 -4 -4 -5
-4 -4 -3 -3 -2 -1 -1 -1 -2 -2 -1 -1 -1 -1 -2 -2 -2 -2 -3 -3 -3 -4 -4 -5 -5 -6 -6 -6 -6 -6 -6 -6 -5 -5 -5 -4 -4 -3 -3 -3 -3 -4 -4 -4 -4 -4 -3 -4 -4
-4 -4 -3 -2 -1 -1 -1 -1 -2 -2 -1 -1 -1 -1 -2 -2 -2 -2 -2 -3 -4 -4 -4 -5 -5 -5 -5 -6 -5 -5 -5 -5 -5 -5 -5 -4 -4 -4 -3 -3 -4 -4 -4 -4 -4 -3 -3 -3 -4
-4 -3 -3 -2 -1 -1 -1 -1 -1 -1 -1 -1 -1 -1 -2 -2 -2 -2 -2 -3 -4 -5 -5 -5 -5 -5 -5 -5 -5 -5 -5 -5 -5 -5 -5 -4 -4 -4 -4 -4 -4 -4 -4 -3 -3 -3 -3 -3 -3
-3 -3 -3 -2 -1 -1 -1 -1 -1 -2 -1 -1 -1 -2 -2 -2 -2 -2 -2 -3 -4 -5 -5 -6 -6 -5 -5 -5 -5 -5 -5 -4 -4 -4 -5 -5 -4 -4 -4 -3 -3 -4 -4 -3 -3 -3 -3 -3 -3
-2 -2 -2 -1 -2 -1 -1 -1 -2 -2 -2 -2 -2 -2 -2 -2 -2 -2 -3 -3 -4 -5 -5 -6 -6 -6 -5 -5 -5 -5 -4 -4 -4 -4 -4 -4 -4 -4 -3 -3 -4 -4 -3 -3 -3 -3 -3 -3 -3
-0 -1 -1 -1 -1 -2 -2 -1 -2 -2 -2 -2 -2 -2 -2 -2 -2 -2 -3 -3 -4 -4 -5 -5 -5 -5 -5 -5 -5 -5 -4 -4 -4 -4 -4 -4 -4 -3 -4 -4 -4 -3 -3 -3 -3 -3 -3 -3 -3
1 -0 -1 -1 -1 -2 -1 -1 -2 -2 -2 -2 -2 -2 -1 -2 -2 -2 -2 -3 -4 -4 -5 -5 -5 -5 -5 -5 -5 -4 -4 -4 -4 -4 -4 -4 -4 -3 -4 -4 -4 -3 -3 -3 -3 -3 -3 -3 -3
1 -1 -1 -1 -1 -1 -1 -1 -2 -2 -2 -2 -2 -2 -1 -1 -2 -2 -2 -3 -4 -4 -5 -5 -4 -5 -5 -5 -4 -4 -4 -4 -3 -3 -3 -3 -3 -3 -3 -4 -4 -3 -3 -3 -3 -3 -3 -3 -3
0 -0 -1 -1 -1 -1 -1 -1 -1 -2 -2 -2 -2 -1 -1 -1 -1 -1 -2 -2 -3 -4 -4 -4 -4 -5 -5 -5 -4 -4 -4 -4 -3 -3 -3 -3 -3 -3 -3 -3 -3 -3 -4 -3 -3 -3 -3 -3 -2
0 -0 -1 -1 -2 -1 -1 -1 -1 -2 -1 -1 -1 -1 -1 -1 -0 -1 -2 -2 -2 -3 -4 -4 -4 -4 -5 -4 -4 -4 -4 -4 -3 -3 -4 -3 -3 -2 -2 -2 -3 -3 -4 -3 -3 -3 -2 -2 -2
0 0 -1 -1 -2 -2 -2 -1 -1 -1 -1 -0 -0 -1 -1 -1 -0 -1 -1 -2 -2 -3 -3 -3 -4 -4 -4 -4 -4 -4 -4 -3 -3 -3 -3 -3 -3 -2 -3 -2 -3 -3 -4 -4 -3 -2 -2 -2 -2
1 1 -0 -1 -2 -2 -2 -1 -1 -1 -1 -0 -0 -1 -1 -1 -1 -1 -1 -2 -2 -3 -3 -3 -4 -4 -4 -3 -3 -3 -3 -3 -3 -2 -2 -3 -3 -3 -3 -3 -3 -4 -4 -4 -3 -3 -2 -2 -2
1 1 0 -1 -2 -2 -2 -2 -1 -1 -1 -1 -1 -1 -1 -1 -1 -1 -1 -2 -2 -3 -3 -3 -4 -4 -4 -3 -3 -3 -3 -3 -2 -2 -2 -3 -3 -3 -4 -4 -4 -4 -4 -4 -4 -3 -3 -3 -3
1 1 -0 -2 -2 -2 -2 -2 -2 -2 -2 -1 -1 -1 -1 -1 -1 -1 -1 -2 -2 -3 -3 -3 -3 -4 -4 -3 -3 -2 -2 -2 -2 -2 -2 -2 -3 -4 -4 -4 -4 -3 -4 -4 -4 -4 -4 -4 -3
0 -0 -1 -2 -2 -2 -2 -2 -2 -2 -2 -1 -1 -0 -0 -1 -1 -1 -1 -2 -2 -2 -3 -3 -3 -3 -3 -3 -2 -2 -1 -1 -1 -2 -2 -2 -3 -4 -4 -3 -2 -3 -3 -4 -4 -4 -4 -4 -4
-0 -1 -1 -2 -2 -2 -2 -2 -2 -2 -2 -1 -1 -0 -0 -0 -1 -1 -1 -2 -2 -2 -2 -2 -2 -3 -3 -3 -2 -1 -1 -0 -1 -2 -3 -3 -3 -4 -3 -2 -2 -2 -3 -3 -3 -4 -4 -4 -4
-0 -0 -1 -2 -2 -2 -2 -2 -2 -1 -1 -1 -1 -1 -1 -1 -1 -1 -2 -2 -2 -2 -2 -2 -2 -3 -3 -2 -2 -1 -0 -0 -1 -2 -3 -3 -3 -4 -4 -3 -2 -3 -3 -3 -3 -4 -5 -4 -4
1 0 -1 -1 -2 -2 -2 -2 -2 -2 -2 -1 -1 -1 -1 -1 -1 -2 -2 -2 -2 -2 -2 -2 -2 -3 -3 -2 -2 -2 -1 -1 -1 -3 -3 -3 -3 -3 -4 -4 -3 -3 -3 -4 -4 -5 -4 -4 -3
1 0 -1 -1 -2 -2 -2 -2 -2 -2 -2 -2 -2 -1 -1 -1 -2 -2 -2 -2 -2 -2 -3 -3 -3 -3 -3 -3 -3 -2 -2 -2 -2 -3 -3 -3 -3 -3 -4 -4 -4 -4 -4 -4 -4 -4 -4 -3 -2
0 -0 -1 -1 -2 -2 -2 -2 -2 -1 -1 -2 -2 -2 -2 -2 -2 -2 -2 -2 -2 -2 -3 -3 -3 -3 -3 -3 -3 -3 -3 -2 -3 -3 -4 -3 -3 -3 -4 -5 -5 -5 -5 -4 -4 -4 -4 -3 -1
-0 -0 -1 -1 -2 -1 -1 -1 -1 -1 -1 -2 -3 -3 -2 -2 -2 -2 -2 -2 -2 -2 -3 -3 -4 -4 -4 -3 -3 -3 -3 -3 -3 -3 -4 -3 -3 -3 -4 -5 -5 -5 -5 -4 -4 -4 -4 -3 -2
1 0 -0 -1 -1 -1 -1 -1 -1 -1 -0 -1 -2 -3 -3 -2 -2 -2 -3 -3 -2 -2 -3 -4 -4 -4 -4 -4 -3 -3 -3 -3 -3 -4 -4 -3 -3 -3 -4 -5 -5 -5 -5 -4 -4 -4 -4 -4 -4
1 1 0 -0 -1 -1 -1 -1 -1 -1 -1 -1 -2 -3 -3 -2 -2 -3 -3 -3 -3 -3 -3 -4 -5 -5 -4 -4 -4 -4 -4 -4 -4 -4 -4 -4 -4 -4 -5 -5 -5 -5 -4 -4 -4 -5 -5 -5 -5
1 0 -0 -0 -0 -0 -0 -1 -1 -1 -1 -1 -2 -2 -2 -2 -2 -2 -3 -3 -3 -3 -3 -4 -5 -5 -4 -4 -4 -4 -4 -4 -4 -4 -4 -4 -4 -5 -5 -5 -5 -5 -5 -4 -4 -5 -5 -5 -5
0 -0 -0 -0 -1 -0 -0 -1 -1 -1 -1 -1 -1 -2 -2 -2 -2 -2 -3 -3 -3 -3 -3 -4 -5 -5 -5 -5 -5 -5 -5 -4 -4 -4 -4 -4 -4 -4 -5 -4 -4 -4 -5 -5 -5 -5 -5 -5 -5
-0 -0 -0 -1 -1 -1 -1 -1 -1 -1 -1 -1 -1 -2 -2 -2 -2 -2 -3 -3 -3 -4 -3 -4 -5 -5 -5 -5 -5 -5 -5 -5 -4 -4 -5 -5 -5 -5 -4 -3 -3 -4 -5 -5 -5 -5 -5 -5 -5
-0 -0 -0 -0 -1 -1 -1 -1 -1 -1 -1 -1 -1 -2 -2 -2 -2 -2 -3 -3 -3 -4 -4 -4 -5 -5 -5 -5 -5 -5 -5 -5 -4 -4 -5 -5 -5 -5 -5 -4 -4 -4 -5 -6 -6 -5 -5 -5 -5
-0 -0 -0 -1 -1 -1 -1 -1 -1 -1 -1 -2 -2 -2 -2 -2 -2 -3 -3 -4 -4 -4 -4 -5 -5 -5 -5 -6 -6 -6 -5 -5 -5 -4 -5 -5 -5 -5 -5 -5 -5 -6 -6 -6 -6 -6 -5 -5 -5
-1 -1 -1 -1 -1 -1 -1 -1 -1 -1 -1 -2 -2 -2 -2 -2 -3 -3 -4 -4 -4 -4 -4 -5 -5 -5 -5 -6 -6 -6 -6 -6 -5 -4 -4 -5 -5 -6 -5 -5 -5 -6 -6 -6 -6 -6 -5 -5 -5